Regional Weather Roundup
Issued by NWS

Home | Current Version | Previous Version | Graphics & Text | Print | Product List | Glossary On
Versions: 1 2 3 4 5 6 7 8 9 10 11 12 13 14 15 16 17 18 19 20 21 22 23 24 25 26 27 28 29 30 31 32 33 34 35 36 37 38 39 40 41 42 43 44 45 46 47 48 49 50
000
ASUS43 KMKX 101011
RWRWI

WISCONSIN REGIONAL WEATHER ROUNDUP
NATIONAL WEATHER SERVICE MILWAUKEE/SULLIVAN WI
500 AM CDT THU JUL 10 2014

NOTE: "FAIR" INDICATES FEW OR NO CLOUDS BELOW 12,000 FEET WITH NO
SIGNIFICANT WEATHER AND/OR OBSTRUCTIONS TO VISIBILITY.

WIZ001-002-006>008-014>016-023>028-101100-
NORTHWEST WISCONSIN

CITY           SKY/WX    TMP DP  RH WIND       PRES   REMARKS
SUPERIOR ARPT  CLEAR     44  43  97 CALM      30.05R
ASHLAND        MOCLDY    45  44  97 SW3       30.08R
HAYWARD        CLEAR     51  50  96 CALM      30.08R
SIREN          PTCLDY    57  54  89 S6        30.06R
RICE LAKE      CLEAR     54  51  90 CALM      30.09S
LADYSMITH      CLEAR     53  49  88 CALM      30.12R
EAU CLAIRE     CLEAR     56  54  93 N3        30.07R
MENOMONIE      SUNNY     56  55  95 CALM      30.07S
NEW RICHMOND   CLEAR     56  55  95 SE3       30.06R
OSCEOLA        CLEAR     57  57  98 CALM      30.07R
$$

WIZ003>005-009-010-017-018-101100-
NORTH CENTRAL WISCONSIN

CITY           SKY/WX    TMP DP  RH WIND       PRES   REMARKS
WOODRUFF       CLEAR     44  37  75 CALM      30.12R
RHINELANDER    CLEAR     42  41  96 CALM      30.13S FOG
EAGLE RIVER    PTCLDY    40  40 100 CALM      30.12R FOG
LAND O LAKES   CLEAR     38  38 100 CALM      30.13R
PHILLIPS       PTCLDY    47  46  95 CALM      30.11R
TOMAHAWK       FOG       40  39  97 CALM      30.13R VSB 3/4
MEDFORD        MOCLDY    52  49  90 CALM      30.12R
MERRILL        MOCLDY    43  43  99 CALM      30.12S
$$

WIZ029-030-035-036-043>047-101100-
CENTRAL WISCONSIN

CITY           SKY/WX    TMP DP  RH WIND       PRES   REMARKS
WAUSAU         CLEAR     49  48  97 E3        30.11R
MOSINEE        CLEAR     48  48 100 CALM      30.13R
MARSHFIELD     CLEAR     53  50  89 CALM      30.11R
STEVENS POINT  CLEAR     45  44  97 CALM      30.13R
WAUPACA        CLEAR     51  49  93 CALM      30.13R
WAUTOMA        CLEAR     49  48  96 CALM      30.13R
WISC RAPIDS    CLEAR     49  48  97 CALM      30.12S FOG
CAMP DOUGLAS   FOG       49  49 100 E3        30.10S VSB 1/2
$$

WIZ011>013-019>022-031-037>040-048>050-101100-
NORTHEAST WISCONSIN

CITY           SKY/WX    TMP DP  RH WIND       PRES   REMARKS
ANTIGO         CLEAR     43  42  98 CALM      30.14R
STURGEON BAY   CLEAR     52  46  82 CALM      30.13R
GREEN BAY      CLEAR     52  50  93 CALM      30.12R
MANITOWOC      CLEAR     50  49  96 CALM      30.13R FOG
APPLETON       CLEAR     55  50  82 CALM      30.12S
CLINTONVILLE   CLEAR     48  46  93 CALM      30.12R
OSHKOSH        CLEAR     54  51  90 CALM      30.11R
$$

WIZ032>034-041-042-053>061-101100-
SOUTHWEST WISCONSIN

CITY           SKY/WX    TMP DP  RH WIND       PRES   REMARKS
LA CROSSE      MOCLDY    60  55  83 E7        30.07R
SPARTA         CLEAR     48  47  96 CALM      30.10S
VIROQUA        FAIR      58  54  87 SE6       30.10R
BOSCOBEL       CLOUDY    58  55  90 E3        30.10R
PRAIRIE DU CHI CLEAR     59  56  92 CALM      30.07S
PLATTEVILLE    MOCLDY    61  56  83 SE7       30.10S
$$

WIZ056-057-062-063-064-067-068-101100-
SOUTH CENTRAL WISCONSIN

CITY           SKY/WX    TMP DP  RH WIND       PRES   REMARKS
BARABOO/DELLS  CLEAR     53  50  89 CALM      30.11R
LONE ROCK      PTCLDY    56  51  84 CALM      30.11R
WATERTOWN      CLEAR     53  53  99 CALM      30.11S
MADISON        CLEAR     55  52  89 CALM      30.11R
MIDDLETON        N/A     52  52 100 CALM      30.12R
MONROE         CLEAR     61  52  72 S7        30.11R
JANESVILLE     CLEAR     54  52  94 CALM      30.11R
$$

WIZ051-052-058>065-066-070>072-101100-
SOUTHEAST WISCONSIN

CITY           SKY/WX    TMP DP  RH WIND       PRES   REMARKS
MILWAUKEE      PTCLDY    58  53  84 CALM      30.12R
WAUKESHA       CLEAR     52  50  93 CALM      30.13S
MILWAUKEE/TIMM PTCLDY    54  50  87 CALM      30.13R
RACINE         PTCLDY    56  54  93 CALM      30.14R
BURLINGTON     CLEAR     49  49 100 CALM      30.12R
KENOSHA        FOG       53  53 100 NE3       30.12R VSB 1/2
FOND DU LAC    CLEAR     51  49  92 CALM      30.12R
SHEBOYGAN      FOG       52  51  97 CALM      30.13R VSB 1/4
WEST BEND      CLEAR     50  46  87 CALM      30.13R
JUNEAU         CLEAR     54  40  57 CALM      30.13R
$$

LSZ147-162-101100-
LAKE SUPERIOR

STATION/POSITION TIME  TEMP    WIND        PRES    WAVE
                       AIR SEA DIR/SP/G            HT/PER
                 (UTC) (F)     (DEG/KT/KT) (MB)    (FT/S)
W MID LAKE BUOY  0950   45 38  170/  2/  2 1018.5R   0
DEVILS ISLAND    1000   60     200/  6/  7 1018.1R
PORT WING        0940   56     100/  1/  2 1017.6R
SAXON HARBOR     0940          200/  6/  7 1018.3R
$$

LMZ867-665-643>646-101100-
LAKE MICHIGAN

STATION/POSITION TIME  TEMP    WIND        PRES    WAVE
                       AIR SEA DIR/SP/G            HT/PER
                 (UTC) (F)     (DEG/KT/KT) (MB)    (FT/S)
N MID LAKE BUOY  0950   55 53  190/  4/  4 1019.8R   0
NORTHPORT PIER   0900   57     190/  3/  5 1019.6R
KEWAUNEE LAKESHO 0900   52      CALM  /  2 1020.2R
SHEBOYGAN LAKESH 1000   56        CALM     1020.6R
PORT WASHINGTON  0900   53      CALM  /  2 1020.3
ATWATER BUOY     0800   54     320/  2     1020.4R
MILWAUKEE LAKESH 0900   58      40/  2/  2   N/A
S MID LAKE BUOY  0950   57 56   20/  4/  6 1020.2R   0
KENOSHA   LAKESH 1000   58      10/  2/  3   N/A
$$

TC  - TEMPERATURE IN CELSIUS
VSB - VISIBILITY IN STATUTE MILES
WCI - WIND CHILL INDEX
HX  - HEAT INDEX



USA.gov is the U.S. government's official web portal to all federal, state and local government web resources and services.